Year,Month,Day,Hour,Minute,Value (Times are PST for temperature in C)
2017,09,16,00,00,11.60
2017,09,16,00,01,11.60
2017,09,16,00,02,11.60
2017,09,16,00,03,11.60
2017,09,16,00,04,11.60
2017,09,16,00,05,11.60
2017,09,16,00,06,11.60
2017,09,16,00,07,11.60
2017,09,16,00,08,11.60
2017,09,16,00,09,11.60
2017,09,16,00,10,11.60
2017,09,16,00,11,11.60
2017,09,16,00,12,11.60
2017,09,16,00,13,11.60
2017,09,16,00,14,11.60
2017,09,16,00,15,11.60
2017,09,16,00,16,11.60
2017,09,16,00,17,11.60
2017,09,16,00,18,11.50
2017,09,16,00,19,11.40
2017,09,16,00,20,11.40
2017,09,16,00,21,11.40
2017,09,16,00,22,11.40
2017,09,16,00,23,11.40
2017,09,16,00,24,11.30
2017,09,16,00,25,11.30
2017,09,16,00,26,11.30
2017,09,16,00,27,11.20
2017,09,16,00,28,11.20
2017,09,16,00,29,11.10
2017,09,16,00,30,11.10
2017,09,16,00,31,11.10
2017,09,16,00,32,11.10
2017,09,16,00,33,11.10
2017,09,16,00,34,10.90
2017,09,16,00,35,10.90
2017,09,16,00,36,10.90
2017,09,16,00,37,10.90
2017,09,16,00,38,10.90
2017,09,16,00,39,10.90
2017,09,16,00,40,10.90
2017,09,16,00,41,10.80
2017,09,16,00,42,10.80
2017,09,16,00,43,10.80
2017,09,16,00,44,10.80
2017,09,16,00,45,10.80
2017,09,16,00,46,10.80
2017,09,16,00,47,10.70
2017,09,16,00,48,10.70
2017,09,16,00,49,10.70
2017,09,16,00,50,10.70
2017,09,16,00,51,10.70
2017,09,16,00,52,10.70
2017,09,16,00,53,10.60
2017,09,16,00,54,10.60
2017,09,16,00,55,10.60
2017,09,16,00,56,10.60
2017,09,16,00,57,10.60
2017,09,16,00,58,10.60
2017,09,16,00,59,10.60
2017,09,16,01,00,10.60
2017,09,16,01,01,10.60
2017,09,16,01,02,10.60
2017,09,16,01,03,10.50
2017,09,16,01,04,10.40
2017,09,16,01,05,10.40
2017,09,16,01,06,10.40
2017,09,16,01,07,10.40
2017,09,16,01,08,10.40
2017,09,16,01,09,10.40
2017,09,16,01,10,10.40
2017,09,16,01,11,10.40
2017,09,16,01,12,10.40
2017,09,16,01,13,10.40
2017,09,16,01,14,10.40
2017,09,16,01,15,10.40
2017,09,16,01,16,10.40
2017,09,16,01,17,10.40
2017,09,16,01,18,10.40
2017,09,16,01,19,10.40
2017,09,16,01,20,10.40
2017,09,16,01,21,10.40
2017,09,16,01,22,10.40
2017,09,16,01,23,10.40
2017,09,16,01,24,10.40
2017,09,16,01,25,10.40
2017,09,16,01,26,10.40
2017,09,16,01,27,10.40
2017,09,16,01,28,10.40
2017,09,16,01,29,10.40
2017,09,16,01,30,10.30
2017,09,16,01,31,10.30
2017,09,16,01,32,10.30
2017,09,16,01,33,10.30
2017,09,16,01,34,10.20
2017,09,16,01,35,10.20
2017,09,16,01,36,10.20
2017,09,16,01,37,10.20
2017,09,16,01,38,10.20
2017,09,16,01,39,10.10
2017,09,16,01,40,10.10
2017,09,16,01,41,10.10
2017,09,16,01,42,10.10
2017,09,16,01,43,10.10
2017,09,16,01,44,10.10
2017,09,16,01,45,10.10
2017,09,16,01,46,10.10
2017,09,16,01,47,10.00
2017,09,16,01,48,9.90
2017,09,16,01,49,9.90
2017,09,16,01,50,9.90
2017,09,16,01,51,9.90
2017,09,16,01,52,9.90
2017,09,16,01,53,9.90
2017,09,16,01,54,9.90
2017,09,16,01,55,9.90
2017,09,16,01,56,9.90
2017,09,16,01,57,9.90
2017,09,16,01,58,9.90
2017,09,16,01,59,9.90
2017,09,16,02,00,9.90
2017,09,16,02,01,9.90
2017,09,16,02,02,9.80
2017,09,16,02,03,9.80
2017,09,16,02,04,9.70
2017,09,16,02,05,9.70
2017,09,16,02,06,9.70
2017,09,16,02,07,9.70
2017,09,16,02,08,9.70
2017,09,16,02,09,9.70
2017,09,16,02,10,9.70
2017,09,16,02,11,9.70
2017,09,16,02,12,9.70
2017,09,16,02,13,9.70
2017,09,16,02,14,9.70
2017,09,16,02,15,9.70
2017,09,16,02,16,9.70
2017,09,16,02,17,9.70
2017,09,16,02,18,9.70
2017,09,16,02,19,9.70
2017,09,16,02,20,9.70
2017,09,16,02,21,9.70
2017,09,16,02,22,9.70
2017,09,16,02,23,9.70
2017,09,16,02,24,9.70
2017,09,16,02,25,9.60
2017,09,16,02,26,9.60
2017,09,16,02,27,9.60
2017,09,16,02,28,9.60
2017,09,16,02,29,9.60
2017,09,16,02,30,9.60
2017,09,16,02,31,9.60
2017,09,16,02,32,9.60
2017,09,16,02,33,9.60
2017,09,16,02,34,9.50
2017,09,16,02,35,9.50
2017,09,16,02,36,9.50
2017,09,16,02,37,9.50
2017,09,16,02,38,9.50
2017,09,16,02,39,9.40
2017,09,16,02,40,9.40
2017,09,16,02,41,9.40
2017,09,16,02,42,9.40
2017,09,16,02,43,9.40
2017,09,16,02,44,9.40
2017,09,16,02,45,9.40
2017,09,16,02,46,9.40
2017,09,16,02,47,9.40
2017,09,16,02,48,9.30
2017,09,16,02,49,9.30
2017,09,16,02,50,9.30
2017,09,16,02,51,9.30
2017,09,16,02,52,9.20
2017,09,16,02,53,9.20
2017,09,16,02,54,9.20
2017,09,16,02,55,9.20
2017,09,16,02,56,9.20
2017,09,16,02,57,9.20
2017,09,16,02,58,9.20
2017,09,16,02,59,9.20
2017,09,16,03,00,9.20
2017,09,16,03,01,9.20
2017,09,16,03,02,9.20
2017,09,16,03,03,9.20
2017,09,16,03,04,9.20
2017,09,16,03,05,9.20
2017,09,16,03,06,9.20
2017,09,16,03,07,9.20
2017,09,16,03,08,9.10
2017,09,16,03,09,9.10
2017,09,16,03,10,9.10
2017,09,16,03,11,9.10
2017,09,16,03,12,9.00
2017,09,16,03,13,9.00
2017,09,16,03,14,9.00
2017,09,16,03,15,8.90
2017,09,16,03,16,8.90
2017,09,16,03,17,8.90
2017,09,16,03,18,8.90
2017,09,16,03,19,8.80
2017,09,16,03,20,8.80
2017,09,16,03,21,8.80
2017,09,16,03,22,8.80
2017,09,16,03,23,8.80
2017,09,16,03,24,8.80
2017,09,16,03,25,8.80
2017,09,16,03,26,8.90
2017,09,16,03,27,8.90
2017,09,16,03,28,8.90
2017,09,16,03,29,8.90
2017,09,16,03,30,8.90
2017,09,16,03,31,9.00
2017,09,16,03,32,9.00
2017,09,16,03,33,9.00
2017,09,16,03,34,9.00
2017,09,16,03,35,9.00
2017,09,16,03,36,9.00
2017,09,16,03,37,9.00
2017,09,16,03,38,9.00
2017,09,16,03,39,9.00
2017,09,16,03,40,9.00
2017,09,16,03,41,9.00
2017,09,16,03,42,9.00
2017,09,16,03,43,8.90
2017,09,16,03,44,8.90
2017,09,16,03,45,8.90
2017,09,16,03,46,8.90
2017,09,16,03,47,8.90
2017,09,16,03,48,8.80
2017,09,16,03,49,8.80
2017,09,16,03,50,8.80
2017,09,16,03,51,8.80
2017,09,16,03,52,8.80
2017,09,16,03,53,8.70
2017,09,16,03,54,8.70
2017,09,16,03,55,8.70
2017,09,16,03,56,8.70
2017,09,16,03,57,8.70
2017,09,16,03,58,8.70
2017,09,16,03,59,8.70
2017,09,16,04,00,8.70
2017,09,16,04,01,8.70
2017,09,16,04,02,8.70
2017,09,16,04,03,8.70
2017,09,16,04,04,8.70
2017,09,16,04,05,8.70
2017,09,16,04,06,8.70
2017,09,16,04,07,8.70
2017,09,16,04,08,8.70
2017,09,16,04,09,8.70
2017,09,16,04,10,8.70
2017,09,16,04,11,8.70
2017,09,16,04,12,8.70
2017,09,16,04,13,8.60
2017,09,16,04,14,8.60
2017,09,16,04,15,8.60
2017,09,16,04,16,8.60
2017,09,16,04,17,8.60
2017,09,16,04,18,8.60
2017,09,16,04,19,8.50
2017,09,16,04,20,8.50
2017,09,16,04,21,8.50
2017,09,16,04,22,8.50
2017,09,16,04,23,8.50
2017,09,16,04,24,8.40
2017,09,16,04,25,8.40
2017,09,16,04,26,8.40
2017,09,16,04,27,8.40
2017,09,16,04,28,8.30
2017,09,16,04,29,8.30
2017,09,16,04,30,8.30
2017,09,16,04,31,8.30
2017,09,16,04,32,8.20
2017,09,16,04,33,8.20
2017,09,16,04,34,8.20
2017,09,16,04,35,8.20
2017,09,16,04,36,8.20
2017,09,16,04,37,8.20
2017,09,16,04,38,8.20
2017,09,16,04,39,8.20
2017,09,16,04,40,8.20
2017,09,16,04,41,8.20
2017,09,16,04,42,8.20
2017,09,16,04,43,8.20
2017,09,16,04,44,8.20
2017,09,16,04,45,8.10
2017,09,16,04,46,8.10
2017,09,16,04,47,8.10
2017,09,16,04,48,8.10
2017,09,16,04,49,8.10
2017,09,16,04,50,8.10
2017,09,16,04,51,8.10
2017,09,16,04,52,8.10
2017,09,16,04,53,8.10
2017,09,16,04,54,8.10
2017,09,16,04,55,8.10
2017,09,16,04,56,8.10
2017,09,16,04,57,8.20
2017,09,16,04,58,8.20
2017,09,16,04,59,8.20
2017,09,16,05,00,8.10
2017,09,16,05,01,8.10
2017,09,16,05,02,8.10
2017,09,16,05,03,8.10
2017,09,16,05,04,8.10
2017,09,16,05,05,8.10
2017,09,16,05,06,8.20
2017,09,16,05,07,8.20
2017,09,16,05,08,8.20
2017,09,16,05,09,8.20
2017,09,16,05,10,8.20
2017,09,16,05,11,8.20
2017,09,16,05,12,8.20
2017,09,16,05,13,8.20
2017,09,16,05,14,8.30
2017,09,16,05,15,8.20
2017,09,16,05,16,8.20
2017,09,16,05,17,8.30
2017,09,16,05,18,8.20
2017,09,16,05,19,8.20
2017,09,16,05,20,8.20
2017,09,16,05,21,8.20
2017,09,16,05,22,8.20
2017,09,16,05,23,8.20
2017,09,16,05,24,8.20
2017,09,16,05,25,8.20
2017,09,16,05,26,8.20
2017,09,16,05,27,8.20
2017,09,16,05,28,8.10
2017,09,16,05,29,8.10
2017,09,16,05,30,8.10
2017,09,16,05,31,8.10
2017,09,16,05,32,8.00
2017,09,16,05,33,8.00
2017,09,16,05,34,8.00
2017,09,16,05,35,8.00
2017,09,16,05,36,7.90
2017,09,16,05,37,7.90
2017,09,16,05,38,7.90
2017,09,16,05,39,7.90
2017,09,16,05,40,7.90
2017,09,16,05,41,7.90
2017,09,16,05,42,7.90
2017,09,16,05,43,7.90
2017,09,16,05,44,7.90
2017,09,16,05,45,7.90
2017,09,16,05,46,7.90
2017,09,16,05,47,7.90
2017,09,16,05,48,7.90
2017,09,16,05,49,7.90
2017,09,16,05,50,7.90
2017,09,16,05,51,7.90
2017,09,16,05,52,7.90
2017,09,16,05,53,7.90
2017,09,16,05,54,7.90
2017,09,16,05,55,7.90
2017,09,16,05,56,7.90
2017,09,16,05,57,7.90
2017,09,16,05,58,7.90
2017,09,16,05,59,7.90
2017,09,16,06,00,7.90
2017,09,16,06,01,7.90
2017,09,16,06,02,7.90
2017,09,16,06,03,7.90
2017,09,16,06,04,7.90
2017,09,16,06,05,7.90
2017,09,16,06,06,7.90
2017,09,16,06,07,7.90
2017,09,16,06,08,7.90
2017,09,16,06,09,7.90
2017,09,16,06,10,7.90
2017,09,16,06,11,7.90
2017,09,16,06,12,7.90
2017,09,16,06,13,7.90
2017,09,16,06,14,7.80
2017,09,16,06,15,7.80
2017,09,16,06,16,7.80
2017,09,16,06,17,7.80
2017,09,16,06,18,7.80
2017,09,16,06,19,7.80
2017,09,16,06,20,7.80
2017,09,16,06,21,7.80
2017,09,16,06,22,7.70
2017,09,16,06,23,7.70
2017,09,16,06,24,7.70
2017,09,16,06,25,7.70
2017,09,16,06,26,7.70
2017,09,16,06,27,7.70
2017,09,16,06,28,7.70
2017,09,16,06,29,7.70
2017,09,16,06,30,7.70
2017,09,16,06,31,7.70
2017,09,16,06,32,7.70
2017,09,16,06,33,7.70
2017,09,16,06,34,7.70
2017,09,16,06,35,7.70
2017,09,16,06,36,7.70
2017,09,16,06,37,7.70
2017,09,16,06,38,7.70
2017,09,16,06,39,7.70
2017,09,16,06,40,7.70
2017,09,16,06,41,7.70
2017,09,16,06,42,7.80
2017,09,16,06,43,7.80
2017,09,16,06,44,7.80
2017,09,16,06,45,7.80
2017,09,16,06,46,7.80
2017,09,16,06,47,7.80
2017,09,16,06,48,7.80
2017,09,16,06,49,7.80
2017,09,16,06,50,7.80
2017,09,16,06,51,7.80
2017,09,16,06,52,7.80
2017,09,16,06,53,7.80
2017,09,16,06,54,7.80
2017,09,16,06,55,7.80
2017,09,16,06,56,7.80
2017,09,16,06,57,7.80
2017,09,16,06,58,7.70
2017,09,16,06,59,7.70
2017,09,16,07,00,7.70
2017,09,16,07,01,7.70
2017,09,16,07,02,7.70
2017,09,16,07,03,7.60
2017,09,16,07,04,7.60
2017,09,16,07,05,7.60
2017,09,16,07,06,7.60
2017,09,16,07,07,7.60
2017,09,16,07,08,7.60
2017,09,16,07,09,7.60
2017,09,16,07,10,7.60
2017,09,16,07,11,7.60
2017,09,16,07,12,7.60
2017,09,16,07,13,7.60
2017,09,16,07,14,7.60
2017,09,16,07,15,7.60
2017,09,16,07,16,7.60
2017,09,16,07,17,7.60
2017,09,16,07,18,7.70
2017,09,16,07,19,7.70
2017,09,16,07,20,7.80
2017,09,16,07,21,7.80
2017,09,16,07,22,7.90
2017,09,16,07,23,8.00
2017,09,16,07,24,8.10
2017,09,16,07,25,8.20
2017,09,16,07,26,8.20
2017,09,16,07,27,8.30
2017,09,16,07,28,8.30
2017,09,16,07,29,8.40
2017,09,16,07,30,8.40
2017,09,16,07,31,8.50
2017,09,16,07,32,8.50
2017,09,16,07,33,8.60
2017,09,16,07,34,8.60
2017,09,16,07,35,8.60
2017,09,16,07,36,8.70
2017,09,16,07,37,8.70
2017,09,16,07,38,8.70
2017,09,16,07,39,8.70
2017,09,16,07,40,8.70
2017,09,16,07,41,8.70
2017,09,16,07,42,8.70
2017,09,16,07,43,8.80
2017,09,16,07,44,8.80
2017,09,16,07,45,8.80
2017,09,16,07,46,8.90
2017,09,16,07,47,8.90
2017,09,16,07,48,9.00
2017,09,16,07,49,9.00
2017,09,16,07,50,9.10
2017,09,16,07,51,9.10
2017,09,16,07,52,9.20
2017,09,16,07,53,9.20
2017,09,16,07,54,9.30
2017,09,16,07,55,9.40
2017,09,16,07,56,9.40
2017,09,16,07,57,9.50
2017,09,16,07,58,9.50
2017,09,16,07,59,9.60
2017,09,16,08,00,9.70
2017,09,16,08,01,9.70
2017,09,16,08,02,9.70
2017,09,16,08,03,9.80
2017,09,16,08,04,9.90
2017,09,16,08,05,10.00
2017,09,16,08,06,10.10
2017,09,16,08,07,10.10
2017,09,16,08,08,10.20
2017,09,16,08,09,10.30
2017,09,16,08,10,10.30
2017,09,16,08,11,10.40
2017,09,16,08,12,10.40
2017,09,16,08,13,10.40
2017,09,16,08,14,10.50
2017,09,16,08,15,10.60
2017,09,16,08,16,10.60
2017,09,16,08,17,10.70
2017,09,16,08,18,10.70
2017,09,16,08,19,10.70
2017,09,16,08,20,10.80
2017,09,16,08,21,10.80
2017,09,16,08,22,10.90
2017,09,16,08,23,10.90
2017,09,16,08,24,10.90
2017,09,16,08,25,10.90
2017,09,16,08,26,10.90
2017,09,16,08,27,11.00
2017,09,16,08,28,11.10
2017,09,16,08,29,11.10
2017,09,16,08,30,11.10
2017,09,16,08,31,11.10
2017,09,16,08,32,11.10
2017,09,16,08,33,11.20
2017,09,16,08,34,11.20
2017,09,16,08,35,11.30
2017,09,16,08,36,11.30
2017,09,16,08,37,11.30
2017,09,16,08,38,11.40
2017,09,16,08,39,11.40
2017,09,16,08,40,11.40
2017,09,16,08,41,11.50
2017,09,16,08,42,11.60
2017,09,16,08,43,11.60
2017,09,16,08,44,11.60
2017,09,16,08,45,11.70
2017,09,16,08,46,11.70
2017,09,16,08,47,11.80
2017,09,16,08,48,11.80
2017,09,16,08,49,11.80
2017,09,16,08,50,11.80
2017,09,16,08,51,11.90
2017,09,16,08,52,11.90
2017,09,16,08,53,12.00
2017,09,16,08,54,12.00
2017,09,16,08,55,12.00
2017,09,16,08,56,12.10
2017,09,16,08,57,12.20
2017,09,16,08,58,12.20
2017,09,16,08,59,12.20
2017,09,16,09,00,12.30
2017,09,16,09,01,12.30
2017,09,16,09,02,12.30
2017,09,16,09,03,12.30
2017,09,16,09,04,12.30
2017,09,16,09,05,12.30
2017,09,16,09,06,12.40
2017,09,16,09,07,12.40
2017,09,16,09,08,12.50
2017,09,16,09,09,12.50
2017,09,16,09,10,12.60
2017,09,16,09,11,12.60
2017,09,16,09,12,12.70
2017,09,16,09,13,12.70
2017,09,16,09,14,12.80
2017,09,16,09,15,12.80
2017,09,16,09,16,12.80
2017,09,16,09,17,12.80
2017,09,16,09,18,12.80
2017,09,16,09,19,12.90
2017,09,16,09,20,12.90
2017,09,16,09,21,12.90
2017,09,16,09,22,13.00
2017,09,16,09,23,13.00
2017,09,16,09,24,13.00
2017,09,16,09,25,13.10
2017,09,16,09,26,13.10
2017,09,16,09,27,13.10
2017,09,16,09,28,13.20
2017,09,16,09,29,13.20
2017,09,16,09,30,13.20
2017,09,16,09,31,13.30
2017,09,16,09,32,13.30
2017,09,16,09,33,13.30
2017,09,16,09,34,13.30
2017,09,16,09,35,13.30
2017,09,16,09,36,13.40
2017,09,16,09,37,13.40
2017,09,16,09,38,13.40
2017,09,16,09,39,13.40
2017,09,16,09,40,13.40
2017,09,16,09,41,13.40
2017,09,16,09,42,13.50
2017,09,16,09,43,13.50
2017,09,16,09,44,13.50
2017,09,16,09,45,13.50
2017,09,16,09,46,13.50
2017,09,16,09,47,13.50
2017,09,16,09,48,13.60
2017,09,16,09,49,13.60
2017,09,16,09,50,13.60
2017,09,16,09,51,13.70
2017,09,16,09,52,13.70
2017,09,16,09,53,13.80
2017,09,16,09,54,13.80
2017,09,16,09,55,13.90
2017,09,16,09,56,13.90
2017,09,16,09,57,14.00
2017,09,16,09,58,14.10
2017,09,16,09,59,14.20
2017,09,16,10,00,14.30
2017,09,16,10,01,14.40
2017,09,16,10,02,14.50
2017,09,16,10,03,14.60
2017,09,16,10,04,14.70
2017,09,16,10,05,14.80
2017,09,16,10,06,14.90
2017,09,16,10,07,15.00
2017,09,16,10,08,15.00
2017,09,16,10,09,15.10
2017,09,16,10,10,15.30
2017,09,16,10,11,15.40
2017,09,16,10,12,15.50
2017,09,16,10,13,15.60
2017,09,16,10,14,15.70
2017,09,16,10,15,15.80
2017,09,16,10,16,15.80
2017,09,16,10,17,15.90
2017,09,16,10,18,15.90
2017,09,16,10,19,15.90
2017,09,16,10,20,15.90
2017,09,16,10,21,15.90
2017,09,16,10,22,15.90
2017,09,16,10,23,15.90
2017,09,16,10,24,16.00
2017,09,16,10,25,16.10
2017,09,16,10,26,16.10
2017,09,16,10,27,16.10
2017,09,16,10,28,16.10
2017,09,16,10,29,16.10
2017,09,16,10,30,16.20
2017,09,16,10,31,16.20
2017,09,16,10,32,16.30
2017,09,16,10,33,16.40
2017,09,16,10,34,16.40
2017,09,16,10,35,16.50
2017,09,16,10,36,16.60
2017,09,16,10,37,16.70
2017,09,16,10,38,16.70
2017,09,16,10,39,16.70
2017,09,16,10,40,16.70
2017,09,16,10,41,16.80
2017,09,16,10,42,16.90
2017,09,16,10,43,16.90
2017,09,16,10,44,17.00
2017,09,16,10,45,17.10
2017,09,16,10,46,17.20
2017,09,16,10,47,17.20
2017,09,16,10,48,17.20
2017,09,16,10,49,17.20
2017,09,16,10,50,17.30
2017,09,16,10,51,17.30
2017,09,16,10,52,17.20
2017,09,16,10,53,17.20
2017,09,16,10,54,17.20
2017,09,16,10,55,17.20
2017,09,16,10,56,17.10
2017,09,16,10,57,17.10
2017,09,16,10,58,17.00
2017,09,16,10,59,16.90
2017,09,16,11,00,16.80
2017,09,16,11,01,16.70
2017,09,16,11,02,16.70
2017,09,16,11,03,16.70
2017,09,16,11,04,16.60
2017,09,16,11,05,16.50
2017,09,16,11,06,16.40
2017,09,16,11,07,16.40
2017,09,16,11,08,16.40
2017,09,16,11,09,16.40
2017,09,16,11,10,16.40
2017,09,16,11,11,16.40
2017,09,16,11,12,16.50
2017,09,16,11,13,16.60
2017,09,16,11,14,16.70
2017,09,16,11,15,16.80
2017,09,16,11,16,16.90
2017,09,16,11,17,16.90
2017,09,16,11,18,17.00
2017,09,16,11,19,17.00
2017,09,16,11,20,17.10
2017,09,16,11,21,17.10
2017,09,16,11,22,17.00
2017,09,16,11,23,17.00
2017,09,16,11,24,16.90
2017,09,16,11,25,16.90
2017,09,16,11,26,16.80
2017,09,16,11,27,16.70
2017,09,16,11,28,16.70
2017,09,16,11,29,16.60
2017,09,16,11,30,16.50
2017,09,16,11,31,16.40
2017,09,16,11,32,16.40
2017,09,16,11,33,16.40
2017,09,16,11,34,16.60
2017,09,16,11,35,16.60
2017,09,16,11,36,16.60
2017,09,16,11,37,16.60
2017,09,16,11,38,16.60
2017,09,16,11,39,16.60
2017,09,16,11,40,16.60
2017,09,16,11,41,16.70
2017,09,16,11,42,16.70
2017,09,16,11,43,16.70
2017,09,16,11,44,16.80
2017,09,16,11,45,16.90
2017,09,16,11,46,16.90
2017,09,16,11,47,16.90
2017,09,16,11,48,17.00
2017,09,16,11,49,17.00
2017,09,16,11,50,17.00
2017,09,16,11,51,17.10
2017,09,16,11,52,17.10
2017,09,16,11,53,17.10
2017,09,16,11,54,17.10
2017,09,16,11,55,17.20
2017,09,16,11,56,17.30
2017,09,16,11,57,17.50
2017,09,16,11,58,17.50
2017,09,16,11,59,17.70
2017,09,16,12,00,17.80
2017,09,16,12,01,17.90
2017,09,16,12,02,17.90
2017,09,16,12,03,18.10
2017,09,16,12,04,18.20
2017,09,16,12,05,18.30
2017,09,16,12,06,18.40
2017,09,16,12,07,18.50
2017,09,16,12,08,18.50
2017,09,16,12,09,18.60
2017,09,16,12,10,18.60
2017,09,16,12,11,18.50
2017,09,16,12,12,18.30
2017,09,16,12,13,18.10
2017,09,16,12,14,18.10
2017,09,16,12,15,18.00
2017,09,16,12,16,18.00
2017,09,16,12,17,17.90
2017,09,16,12,18,17.90
2017,09,16,12,19,17.90
2017,09,16,12,20,17.80
2017,09,16,12,21,17.70
2017,09,16,12,22,17.70
2017,09,16,12,23,17.70
2017,09,16,12,24,17.70
2017,09,16,12,25,17.70
2017,09,16,12,26,17.80
2017,09,16,12,27,17.80
2017,09,16,12,28,17.90
2017,09,16,12,29,17.90
2017,09,16,12,30,18.00
2017,09,16,12,31,18.10
2017,09,16,12,32,18.20
2017,09,16,12,33,18.20
2017,09,16,12,34,18.20
2017,09,16,12,35,18.30
2017,09,16,12,36,18.40
2017,09,16,12,37,18.50
2017,09,16,12,38,18.60
2017,09,16,12,39,18.60
2017,09,16,12,40,18.70
2017,09,16,12,41,18.80
2017,09,16,12,42,18.80
2017,09,16,12,43,18.80
2017,09,16,12,44,18.80
2017,09,16,12,45,18.80
2017,09,16,12,46,18.80
2017,09,16,12,47,18.70
2017,09,16,12,48,18.60
2017,09,16,12,49,18.50
2017,09,16,12,50,18.50
2017,09,16,12,51,18.40
2017,09,16,12,52,18.30
2017,09,16,12,53,18.20
2017,09,16,12,54,18.20
2017,09,16,12,55,18.20
2017,09,16,12,56,18.20
2017,09,16,12,57,18.20
2017,09,16,12,58,18.10
2017,09,16,12,59,18.10
2017,09,16,13,00,18.00
2017,09,16,13,01,17.90
2017,09,16,13,02,17.90
2017,09,16,13,03,17.90
2017,09,16,13,04,17.90
2017,09,16,13,05,17.90
2017,09,16,13,06,17.90
2017,09,16,13,07,17.90
2017,09,16,13,08,17.90
2017,09,16,13,09,17.90
2017,09,16,13,10,17.90
2017,09,16,13,11,17.90
2017,09,16,13,12,17.90
2017,09,16,13,13,17.90
2017,09,16,13,14,17.90
2017,09,16,13,15,17.90
2017,09,16,13,16,18.00
2017,09,16,13,17,18.10
2017,09,16,13,18,18.20
2017,09,16,13,19,18.20
2017,09,16,13,20,18.20
2017,09,16,13,21,18.30
2017,09,16,13,22,18.30
2017,09,16,13,23,18.30
2017,09,16,13,24,18.20
2017,09,16,13,25,18.20
2017,09,16,13,26,18.20
2017,09,16,13,27,18.20
2017,09,16,13,28,18.20
2017,09,16,13,29,18.20
2017,09,16,13,30,18.20
2017,09,16,13,31,18.20
2017,09,16,13,32,18.20
2017,09,16,13,33,18.20
2017,09,16,13,34,18.20
2017,09,16,13,35,18.20
2017,09,16,13,36,18.20
2017,09,16,13,37,18.20
2017,09,16,13,38,18.20
2017,09,16,13,39,18.20
2017,09,16,13,40,18.20
2017,09,16,13,41,18.20
2017,09,16,13,42,18.20
2017,09,16,13,43,18.20
2017,09,16,13,44,18.20
2017,09,16,13,45,18.20
2017,09,16,13,46,18.20
2017,09,16,13,47,18.20
2017,09,16,13,48,18.10
2017,09,16,13,49,18.10
2017,09,16,13,50,18.10
2017,09,16,13,51,18.10
2017,09,16,13,52,18.20
2017,09,16,13,53,18.20
2017,09,16,13,54,18.20
2017,09,16,13,55,18.20
2017,09,16,13,56,18.20
2017,09,16,13,57,18.20
2017,09,16,13,58,18.20
2017,09,16,13,59,18.20
2017,09,16,14,00,18.20
2017,09,16,14,01,18.20
2017,09,16,14,02,18.20
2017,09,16,14,03,18.20
2017,09,16,14,04,18.20
2017,09,16,14,05,18.20
2017,09,16,14,06,18.20
2017,09,16,14,07,18.20
2017,09,16,14,08,18.20
2017,09,16,14,09,18.20
2017,09,16,14,10,18.20
2017,09,16,14,11,18.20
2017,09,16,14,12,18.20
2017,09,16,14,13,18.30
2017,09,16,14,14,18.30
2017,09,16,14,15,18.30
2017,09,16,14,16,18.30
2017,09,16,14,17,18.40
2017,09,16,14,18,18.40
2017,09,16,14,19,18.40
2017,09,16,14,20,18.40
2017,09,16,14,21,18.40
2017,09,16,14,22,18.40
2017,09,16,14,23,18.30
2017,09,16,14,24,18.20
2017,09,16,14,25,18.10
2017,09,16,14,26,18.00
2017,09,16,14,27,17.90
2017,09,16,14,28,17.90
2017,09,16,14,29,17.90
2017,09,16,14,30,17.90
2017,09,16,14,31,17.90
2017,09,16,14,32,17.90
2017,09,16,14,33,17.90
2017,09,16,14,34,18.00
2017,09,16,14,35,18.10
2017,09,16,14,36,18.20
2017,09,16,14,37,18.30
2017,09,16,14,38,18.40
2017,09,16,14,39,18.50
2017,09,16,14,40,18.60
2017,09,16,14,41,18.60
2017,09,16,14,42,18.50
2017,09,16,14,43,18.30
2017,09,16,14,44,18.10
2017,09,16,14,45,17.90
2017,09,16,14,46,17.90
2017,09,16,14,47,17.90
2017,09,16,14,48,17.90
2017,09,16,14,49,17.90
2017,09,16,14,50,17.90
2017,09,16,14,51,18.10
2017,09,16,14,52,18.10
2017,09,16,14,53,18.20
2017,09,16,14,54,18.30
2017,09,16,14,55,18.40
2017,09,16,14,56,18.50
2017,09,16,14,57,18.60
2017,09,16,14,58,18.60
2017,09,16,14,59,18.70
2017,09,16,15,00,18.80
2017,09,16,15,01,18.90
2017,09,16,15,02,18.90
2017,09,16,15,03,19.00
2017,09,16,15,04,19.10
2017,09,16,15,05,19.10
2017,09,16,15,06,19.10
2017,09,16,15,07,19.20
2017,09,16,15,08,19.30
2017,09,16,15,09,19.40
2017,09,16,15,10,19.50
2017,09,16,15,11,19.60
2017,09,16,15,12,19.60
2017,09,16,15,13,19.70
2017,09,16,15,14,19.70
2017,09,16,15,15,19.80
2017,09,16,15,16,19.80
2017,09,16,15,17,19.90
2017,09,16,15,18,19.90
2017,09,16,15,19,20.00
2017,09,16,15,20,20.10
2017,09,16,15,21,20.10
2017,09,16,15,22,20.20
2017,09,16,15,23,20.20
2017,09,16,15,24,20.20
2017,09,16,15,25,20.20
2017,09,16,15,26,20.20
2017,09,16,15,27,20.20
2017,09,16,15,28,20.20
2017,09,16,15,29,20.20
2017,09,16,15,30,20.10
2017,09,16,15,31,20.10
2017,09,16,15,32,20.00
2017,09,16,15,33,19.90
2017,09,16,15,34,19.90
2017,09,16,15,35,19.90
2017,09,16,15,36,19.90
2017,09,16,15,37,19.90
2017,09,16,15,38,19.80
2017,09,16,15,39,19.80
2017,09,16,15,40,19.80
2017,09,16,15,41,19.80
2017,09,16,15,42,19.90
2017,09,16,15,43,19.90
2017,09,16,15,44,19.90
2017,09,16,15,45,19.90
2017,09,16,15,46,20.00
2017,09,16,15,47,20.10
2017,09,16,15,48,20.10
2017,09,16,15,49,20.10
2017,09,16,15,50,20.20
2017,09,16,15,51,20.20
2017,09,16,15,52,20.20
2017,09,16,15,53,20.20
2017,09,16,15,54,20.30
2017,09,16,15,55,20.30
2017,09,16,15,56,20.40
2017,09,16,15,57,20.40
2017,09,16,15,58,20.40
2017,09,16,15,59,20.50
2017,09,16,16,00,20.50
2017,09,16,16,01,20.60
2017,09,16,16,02,20.60
2017,09,16,16,03,20.70
2017,09,16,16,04,20.80
2017,09,16,16,05,20.90
2017,09,16,16,06,21.00
2017,09,16,16,07,21.10
2017,09,16,16,08,21.20
2017,09,16,16,09,21.30
2017,09,16,16,10,21.40
2017,09,16,16,11,21.40
2017,09,16,16,12,21.50
2017,09,16,16,13,21.60
2017,09,16,16,14,21.60
2017,09,16,16,15,21.60
2017,09,16,16,16,21.60
2017,09,16,16,17,21.40
2017,09,16,16,18,21.40
2017,09,16,16,19,21.40
2017,09,16,16,20,21.40
2017,09,16,16,21,21.40
2017,09,16,16,22,21.30
2017,09,16,16,23,21.30
2017,09,16,16,24,21.30
2017,09,16,16,25,21.30
2017,09,16,16,26,21.30
2017,09,16,16,27,21.30
2017,09,16,16,28,21.20
2017,09,16,16,29,21.20
2017,09,16,16,30,21.10
2017,09,16,16,31,21.10
2017,09,16,16,32,21.00
2017,09,16,16,33,21.00
2017,09,16,16,34,20.90
2017,09,16,16,35,20.90
2017,09,16,16,36,20.90
2017,09,16,16,37,20.80
2017,09,16,16,38,20.80
2017,09,16,16,39,20.80
2017,09,16,16,40,20.80
2017,09,16,16,41,20.80
2017,09,16,16,42,20.80
2017,09,16,16,43,20.70
2017,09,16,16,44,20.70
2017,09,16,16,45,20.60
2017,09,16,16,46,20.50
2017,09,16,16,47,20.50
2017,09,16,16,48,20.40
2017,09,16,16,49,20.30
2017,09,16,16,50,20.20
2017,09,16,16,51,20.20
2017,09,16,16,52,20.20
2017,09,16,16,53,20.20
2017,09,16,16,54,20.20
2017,09,16,16,55,20.20
2017,09,16,16,56,20.20
2017,09,16,16,57,20.30
2017,09,16,16,58,20.40
2017,09,16,16,59,20.50
2017,09,16,17,00,20.60
2017,09,16,17,01,20.70
2017,09,16,17,02,20.80
2017,09,16,17,03,20.90
2017,09,16,17,04,21.00
2017,09,16,17,05,21.00
2017,09,16,17,06,21.10
2017,09,16,17,07,21.20
2017,09,16,17,08,21.30
2017,09,16,17,09,21.30
2017,09,16,17,10,21.40
2017,09,16,17,11,21.50
2017,09,16,17,12,21.60
2017,09,16,17,13,21.60
2017,09,16,17,14,21.60
2017,09,16,17,15,21.70
2017,09,16,17,16,21.70
2017,09,16,17,17,21.80
2017,09,16,17,18,21.80
2017,09,16,17,19,21.90
2017,09,16,17,20,22.00
2017,09,16,17,21,22.00
2017,09,16,17,22,22.10
2017,09,16,17,23,22.10
2017,09,16,17,24,22.10
2017,09,16,17,25,22.10
2017,09,16,17,26,22.10
2017,09,16,17,27,22.10
2017,09,16,17,28,22.10
2017,09,16,17,29,22.10
2017,09,16,17,30,22.10
2017,09,16,17,31,22.10
2017,09,16,17,32,22.10
2017,09,16,17,33,22.10
2017,09,16,17,34,22.20
2017,09,16,17,35,22.20